{"data":{"norad_id":41182,"epoch":"2026-05-25T03:51:35.210016Z","epoch_age_seconds":68049,"freshness":"FRESH","line1":"1 41182U 15081D   26145.16082419  .00000637  00000+0  17108-3 0  9995","line2":"2 41182  47.0010 110.3134 0003761 319.8741  40.1867 14.58838006554264","mean_motion":14.58838006,"eccentricity":0.0003761,"inclination_deg":47.001,"raan_deg":110.3134,"arg_perigee_deg":319.8741,"mean_anomaly_deg":40.1867,"bstar":0.00017108,"rev_number":55426,"period_min":98.708697886776,"perigee_km":694.26751975722,"apogee_km":699.58938399012,"semimajor_km":7075.0654518737,"source":"CELESTRAK","updated_at":"2026-05-25T13:38:22.865381Z"}}